sat.trackr.live / text

‹ back to catalog

ONEWEB-0699

NORAD 61605 · 2024-188M

PAYLOAD ACTIVE UNKNOWN

§ Identity

Operator
Country
UK
Launch date
2024-10-20
Launch site
AFWTR
Launch vehicle
Mass (kg)
RCS (m²)

Purposes: comms

External: N2YO · Heavens-Above · Gunter

§ Orbital elements

Epoch: 2026-05-25T03:44:00.303648Z

Period
109.89 min
Inclination
87.8855°
Eccentricity
0.0001149
Mean motion
13.10374742 rev/d
Perigee alt
1,220.8 km
Apogee alt
1,222.6 km
Semi-major
7,599.8 km
B*
1.9161e-3
RAAN
40.8511°
Arg perigee
78.2585°
Mean anomaly
281.8671°
Rev number
8,029

§ Raw data

ONEWEB-06991 61605U 24188M   26145.15555907  .00000682  00000+0  19161-2 0  99912 61605  87.8855  40.8511 0001149  78.2585 281.8671 13.10374742 80294

JSON: /api/v1/satellites/61605 · /tle

For live sub-satellite position, see the globe view (requires WebGL).

§ Visibility from observer

Set your observer location to see the next 7 days of passes ≥ 10°. The values pass through the URL so the page stays shareable.

No JS? Fill the form by hand. The geolocation button needs JavaScript.